Time,TemperatureF,DewpointF,PressureIn,WindDirection,WindDirectionDegrees,WindSpeedMPH,WindSpeedGustMPH,Humidity,HourlyPrecipIn,Conditions,Clouds,dailyrainin,SoftwareType,DateUTC
2013-03-26 00:03:00,27.3,19.8,29.86,West,262,7.0,11.0,73,0.00,,---,0.02,VWS V14.01,2013-03-26 04:03:00,
2013-03-26 00:08:00,27.2,20.0,29.86,NW,305,5.0,16.0,74,0.00,,---,0.02,VWS V14.01,2013-03-26 04:08:00,
2013-03-26 00:13:00,27.2,20.3,29.86,WSW,240,7.0,8.0,75,0.00,,---,0.02,VWS V14.01,2013-03-26 04:13:00,
2013-03-26 00:18:00,27.2,20.3,29.86,WSW,251,8.0,14.0,75,0.00,,---,0.02,VWS V14.01,2013-03-26 04:18:00,
2013-03-26 00:23:00,27.2,20.0,29.86,NW,314,6.0,6.0,74,0.00,,---,0.02,VWS V14.01,2013-03-26 04:23:00,
2013-03-26 00:28:00,27.2,20.0,29.86,WSW,251,6.0,13.0,74,0.00,,---,0.02,VWS V14.01,2013-03-26 04:28:00,
2013-03-26 00:33:00,27.2,20.0,29.88,SW,235,7.0,7.0,74,0.00,,---,0.02,VWS V14.01,2013-03-26 04:33:00,
2013-03-26 00:38:00,27.2,20.0,29.88,NW,306,6.0,7.0,74,0.00,,---,0.02,VWS V14.01,2013-03-26 04:38:00,
2013-03-26 00:43:00,27.0,20.1,29.88,West,265,3.0,3.0,75,0.00,,---,0.02,VWS V14.01,2013-03-26 04:43:00,
2013-03-26 00:48:00,27.0,20.5,29.87,West,278,6.0,11.0,76,0.00,,---,0.02,VWS V14.01,2013-03-26 04:48:00,
2013-03-26 00:53:00,27.0,20.5,29.87,West,265,9.0,10.0,76,0.00,,---,0.02,VWS V14.01,2013-03-26 04:53:00,
2013-03-26 00:58:00,26.9,21.0,29.87,WSW,250,2.0,11.0,78,0.00,,---,0.02,VWS V14.01,2013-03-26 04:58:00,
2013-03-26 01:03:00,26.7,21.1,29.87,West,269,7.0,11.0,79,0.00,,---,0.00,VWS V14.01,2013-03-26 05:03:00,
2013-03-26 01:08:00,26.6,21.3,29.87,WSW,242,5.0,11.0,80,0.00,,---,0.00,VWS V14.01,2013-03-26 05:08:00,
2013-03-26 01:13:00,26.4,21.4,29.87,WSW,251,6.0,6.0,81,0.00,,---,0.00,VWS V14.01,2013-03-26 05:13:00,
2013-03-26 01:18:00,26.3,21.3,29.88,WSW,252,2.0,8.0,81,0.00,,---,0.00,VWS V14.01,2013-03-26 05:18:00,
2013-03-26 01:23:00,26.3,21.3,29.88,WSW,238,6.0,6.0,81,0.00,,---,0.00,VWS V14.01,2013-03-26 05:23:00,
2013-03-26 01:28:00,26.1,21.1,29.88,West,265,12.0,18.0,81,0.00,,---,0.00,VWS V14.01,2013-03-26 05:28:00,
2013-03-26 01:33:00,26.1,21.1,29.86,WNW,286,17.0,19.0,81,0.00,,---,0.00,VWS V14.01,2013-03-26 05:33:00,
2013-03-26 01:38:00,26.0,21.0,29.86,WNW,293,4.0,19.0,81,0.00,,---,0.00,VWS V14.01,2013-03-26 05:38:00,
2013-03-26 01:43:00,26.0,20.7,29.86,WNW,290,10.0,10.0,80,0.00,,---,0.00,VWS V14.01,2013-03-26 05:43:00,
2013-03-26 01:48:00,26.0,20.7,29.87,NNW,330,6.0,11.0,80,0.00,,---,0.00,VWS V14.01,2013-03-26 05:48:00,
2013-03-26 01:53:00,26.0,20.7,29.87,WSW,241,12.0,14.0,80,0.00,,---,0.00,VWS V14.01,2013-03-26 05:53:00,
2013-03-26 01:58:00,26.0,20.7,29.87,WNW,298,11.0,14.0,80,0.00,,---,0.00,VWS V14.01,2013-03-26 05:58:00,
2013-03-26 02:03:00,26.0,20.7,29.87,WNW,302,1.0,6.0,80,0.00,,---,0.00,VWS V14.01,2013-03-26 06:03:00,
2013-03-26 02:08:00,26.0,20.7,29.87,WNW,285,12.0,17.0,80,0.00,,---,0.00,VWS V14.01,2013-03-26 06:08:00,
2013-03-26 02:13:00,26.0,20.7,29.87,NNW,333,6.0,17.0,80,0.00,,---,0.00,VWS V14.01,2013-03-26 06:13:00,
2013-03-26 02:18:00,25.8,20.5,29.86,WNW,285,3.0,17.0,80,0.00,,---,0.00,VWS V14.01,2013-03-26 06:18:00,
2013-03-26 02:23:00,25.8,20.2,29.86,WSW,250,8.0,8.0,79,0.00,,---,0.00,VWS V14.01,2013-03-26 06:23:00,
2013-03-26 02:28:00,25.8,20.2,29.86,NW,305,10.0,19.0,79,0.00,,---,0.00,VWS V14.01,2013-03-26 06:28:00,
2013-03-26 02:33:00,26.0,20.4,29.86,NNW,327,8.0,13.0,79,0.00,,---,0.00,VWS V14.01,2013-03-26 06:33:00,
2013-03-26 02:38:00,26.0,20.1,29.86,West,269,9.0,19.0,78,0.00,,---,0.00,VWS V14.01,2013-03-26 06:38:00,
2013-03-26 02:43:00,26.0,20.1,29.86,SW,220,2.0,8.0,78,0.00,,---,0.00,VWS V14.01,2013-03-26 06:43:00,
2013-03-26 02:48:00,26.0,20.1,29.86,WNW,289,12.0,22.0,78,0.00,,---,0.00,VWS V14.01,2013-03-26 06:48:00,
2013-03-26 02:53:00,26.0,19.8,29.86,WSW,255,14.0,14.0,77,0.00,,---,0.00,VWS V14.01,2013-03-26 06:53:00,
2013-03-26 02:58:00,26.0,20.1,29.86,SW,223,7.0,16.0,78,0.00,,---,0.00,VWS V14.01,2013-03-26 06:58:00,
2013-03-26 03:03:00,26.0,20.1,29.86,WSW,254,6.0,10.0,78,0.00,,---,0.00,VWS V14.01,2013-03-26 07:03:00,
2013-03-26 03:08:00,26.0,20.1,29.86,West,268,5.0,11.0,78,0.00,,---,0.00,VWS V14.01,2013-03-26 07:08:00,
2013-03-26 03:13:00,26.0,20.1,29.86,NW,306,7.0,10.0,78,0.00,,---,0.00,VWS V14.01,2013-03-26 07:13:00,
2013-03-26 03:18:00,26.0,20.1,29.89,WNW,282,8.0,14.0,78,0.00,,---,0.00,VWS V14.01,2013-03-26 07:18:00,
2013-03-26 03:23:00,26.0,20.1,29.89,WNW,285,5.0,10.0,78,0.00,,---,0.00,VWS V14.01,2013-03-26 07:23:00,
2013-03-26 03:28:00,26.0,19.8,29.89,WNW,295,5.0,16.0,77,0.00,,---,0.00,VWS V14.01,2013-03-26 07:28:00,
2013-03-26 03:33:00,26.0,19.8,29.89,WSW,252,11.0,11.0,77,0.00,,---,0.00,VWS V14.01,2013-03-26 07:33:00,
2013-03-26 03:38:00,26.0,19.8,29.89,WSW,238,8.0,11.0,77,0.00,,---,0.00,VWS V14.01,2013-03-26 07:38:00,
2013-03-26 03:43:00,26.0,19.8,29.89,West,278,8.0,8.0,77,0.00,,---,0.00,VWS V14.01,2013-03-26 07:43:00,
2013-03-26 03:48:00,26.0,19.8,29.88,WSW,241,8.0,16.0,77,0.00,,---,0.00,VWS V14.01,2013-03-26 07:48:00,
2013-03-26 03:53:00,26.0,19.5,29.88,WSW,244,8.0,8.0,76,0.00,,---,0.00,VWS V14.01,2013-03-26 07:53:00,
2013-03-26 03:58:00,26.0,19.5,29.88,North,354,5.0,16.0,76,0.00,,---,0.00,VWS V14.01,2013-03-26 07:58:00,
2013-03-26 04:03:00,26.0,19.5,29.89,WSW,241,10.0,10.0,76,0.00,,---,0.00,VWS V14.01,2013-03-26 08:03:00,
2013-03-26 04:08:00,26.0,19.8,29.89,West,264,1.0,15.0,77,0.00,,---,0.00,VWS V14.01,2013-03-26 08:08:00,
2013-03-26 04:13:00,26.0,19.8,29.89,SW,233,10.0,14.0,77,0.00,,---,0.00,VWS V14.01,2013-03-26 08:13:00,
2013-03-26 04:18:00,26.0,19.8,29.88,NNW,343,3.0,14.0,77,0.00,,---,0.00,VWS V14.01,2013-03-26 08:18:00,
2013-03-26 04:23:00,25.8,19.9,29.88,WSW,240,5.0,7.0,78,0.00,,---,0.00,VWS V14.01,2013-03-26 08:23:00,
2013-03-26 04:28:00,25.8,19.9,29.88,West,261,3.0,14.0,78,0.00,,---,0.00,VWS V14.01,2013-03-26 08:28:00,
2013-03-26 04:33:00,25.8,20.2,29.88,WSW,254,4.0,5.0,79,0.00,,---,0.00,VWS V14.01,2013-03-26 08:33:00,
2013-03-26 04:38:00,25.8,20.2,29.88,SW,217,4.0,11.0,79,0.00,,---,0.00,VWS V14.01,2013-03-26 08:38:00,
2013-03-26 04:43:00,25.8,20.5,29.88,WNW,298,0.0,0.0,80,0.00,,---,0.00,VWS V14.01,2013-03-26 08:43:00,
2013-03-26 04:48:00,25.7,20.4,29.88,SSW,194,14.0,14.0,80,0.00,,---,0.00,VWS V14.01,2013-03-26 08:48:00,
2013-03-26 04:53:00,25.7,20.4,29.88,WNW,289,6.0,24.0,80,0.00,,---,0.00,VWS V14.01,2013-03-26 08:53:00,
2013-03-26 04:58:00,25.7,20.7,29.88,West,276,3.0,24.0,81,0.00,,---,0.00,VWS V14.01,2013-03-26 08:58:00,
2013-03-26 05:03:00,25.7,20.7,29.88,NW,309,2.0,7.0,81,0.00,,---,0.00,VWS V14.01,2013-03-26 09:03:00,
2013-03-26 05:08:00,25.7,20.7,29.88,WSW,257,5.0,7.0,81,0.00,,---,0.00,VWS V14.01,2013-03-26 09:08:00,
2013-03-26 05:13:00,25.7,20.7,29.88,West,275,0.0,3.0,81,0.00,,---,0.00,VWS V14.01,2013-03-26 09:13:00,
2013-03-26 05:18:00,25.7,20.7,29.88,East,101,0.0,6.0,81,0.00,,---,0.00,VWS V14.01,2013-03-26 09:18:00,
2013-03-26 05:23:00,25.7,20.7,29.88,West,268,7.0,7.0,81,0.00,,---,0.00,VWS V14.01,2013-03-26 09:23:00,
2013-03-26 05:28:00,25.7,20.7,29.88,NNE,17,2.0,11.0,81,0.00,,---,0.00,VWS V14.01,2013-03-26 09:28:00,
2013-03-26 05:33:00,25.7,20.7,29.88,West,278,5.0,7.0,81,0.00,,---,0.00,VWS V14.01,2013-03-26 09:33:00,
2013-03-26 05:38:00,25.7,20.4,29.88,WSW,251,3.0,12.0,80,0.00,,---,0.00,VWS V14.01,2013-03-26 09:38:00,
2013-03-26 05:43:00,25.7,20.4,29.88,SW,227,7.0,7.0,80,0.00,,---,0.00,VWS V14.01,2013-03-26 09:43:00,
2013-03-26 05:48:00,25.8,20.5,29.89,NNW,341,5.0,12.0,80,0.00,,---,0.00,VWS V14.01,2013-03-26 09:48:00,
2013-03-26 05:53:00,25.8,20.5,29.89,West,275,6.0,14.0,80,0.00,,---,0.00,VWS V14.01,2013-03-26 09:53:00,
2013-03-26 05:58:00,25.8,20.2,29.89,NNW,346,5.0,14.0,79,0.00,,---,0.00,VWS V14.01,2013-03-26 09:58:00,
2013-03-26 06:03:00,25.8,20.2,29.89,West,264,0.0,3.0,79,0.00,,---,0.00,VWS V14.01,2013-03-26 10:03:00,
2013-03-26 06:08:00,25.8,20.2,29.89,ENE,59,0.0,5.0,79,0.00,,---,0.00,VWS V14.01,2013-03-26 10:08:00,
2013-03-26 06:13:00,25.8,20.2,29.89,East,83,0.0,2.0,79,0.00,,---,0.00,VWS V14.01,2013-03-26 10:13:00,
2013-03-26 06:18:00,25.8,20.2,29.90,South,169,0.0,6.0,79,0.00,,---,0.00,VWS V14.01,2013-03-26 10:18:00,
2013-03-26 06:23:00,25.8,19.9,29.90,NNE,18,2.0,6.0,78,0.00,,---,0.00,VWS V14.01,2013-03-26 10:23:00,
2013-03-26 06:28:00,25.8,19.9,29.90,North,358,0.0,6.0,78,0.00,,---,0.00,VWS V14.01,2013-03-26 10:28:00,
2013-03-26 06:33:00,25.8,19.9,29.90,WNW,283,0.0,8.0,78,0.00,,---,0.00,VWS V14.01,2013-03-26 10:33:00,
2013-03-26 06:38:00,26.0,20.1,29.90,WSW,254,2.0,12.0,78,0.00,,---,0.00,VWS V14.01,2013-03-26 10:38:00,
2013-03-26 06:43:00,26.0,20.4,29.90,SSW,209,5.0,8.0,79,0.00,,---,0.00,VWS V14.01,2013-03-26 10:43:00,
2013-03-26 06:48:00,26.0,20.4,29.90,South,175,0.0,11.0,79,0.00,,---,0.00,VWS V14.01,2013-03-26 10:48:00,
2013-03-26 06:53:00,26.0,20.4,29.90,SW,214,3.0,3.0,79,0.00,,---,0.00,VWS V14.01,2013-03-26 10:53:00,
2013-03-26 06:58:00,26.0,20.4,29.90,ENE,69,0.0,5.0,79,0.00,,---,0.00,VWS V14.01,2013-03-26 10:58:00,
2013-03-26 07:03:00,26.0,20.7,29.91,WNW,302,2.0,5.0,80,0.00,,---,0.00,VWS V14.01,2013-03-26 11:03:00,
2013-03-26 07:08:00,26.0,20.7,29.91,SW,218,5.0,16.0,80,0.00,,---,0.00,VWS V14.01,2013-03-26 11:08:00,
2013-03-26 07:13:00,26.0,20.7,29.91,NNW,331,5.0,11.0,80,0.00,,---,0.00,VWS V14.01,2013-03-26 11:13:00,
2013-03-26 07:18:00,26.0,20.4,29.92,South,179,3.0,11.0,79,0.00,,---,0.00,VWS V14.01,2013-03-26 11:18:00,
2013-03-26 07:23:00,26.0,20.4,29.92,SW,220,0.0,0.0,79,0.00,,---,0.00,VWS V14.01,2013-03-26 11:23:00,
2013-03-26 07:28:00,26.0,20.4,29.92,NW,309,0.0,5.0,79,0.00,,---,0.00,VWS V14.01,2013-03-26 11:28:00,
2013-03-26 07:33:00,26.0,20.4,29.93,ESE,115,0.0,0.0,79,0.00,,---,0.00,VWS V14.01,2013-03-26 11:33:00,
2013-03-26 07:38:00,26.0,20.4,29.93,SW,230,3.0,6.0,79,0.00,,---,0.00,VWS V14.01,2013-03-26 11:38:00,
2013-03-26 07:43:00,26.0,20.1,29.93,SSW,211,0.0,0.0,78,0.00,,---,0.00,VWS V14.01,2013-03-26 11:43:00,
2013-03-26 07:48:00,26.1,20.2,29.93,SSW,213,0.0,4.0,78,0.00,,---,0.00,VWS V14.01,2013-03-26 11:48:00,
2013-03-26 07:53:00,26.1,20.2,29.93,NNE,18,3.0,6.0,78,0.00,,---,0.00,VWS V14.01,2013-03-26 11:53:00,
2013-03-26 07:58:00,26.1,19.9,29.93,NE,35,0.0,6.0,77,0.00,,---,0.00,VWS V14.01,2013-03-26 11:58:00,
2013-03-26 08:03:00,26.3,20.1,29.94,ESE,110,1.0,1.0,77,0.00,,---,0.00,VWS V14.01,2013-03-26 12:03:00,
2013-03-26 08:08:00,26.4,20.2,29.94,NE,41,0.0,6.0,77,0.00,,---,0.00,VWS V14.01,2013-03-26 12:08:00,
2013-03-26 08:13:00,26.6,20.4,29.94,West,261,3.0,6.0,77,0.00,,---,0.00,VWS V14.01,2013-03-26 12:13:00,
2013-03-26 08:18:00,26.6,20.4,29.94,West,271,6.0,7.0,77,0.00,,---,0.00,VWS V14.01,2013-03-26 12:18:00,
2013-03-26 08:23:00,26.7,20.5,29.94,SSW,193,1.0,5.0,77,0.00,,---,0.00,VWS V14.01,2013-03-26 12:23:00,
2013-03-26 08:28:00,26.9,20.7,29.94,South,185,9.0,11.0,77,0.00,,---,0.00,VWS V14.01,2013-03-26 12:28:00,
2013-03-26 08:33:00,26.9,20.7,29.94,West,259,0.0,2.0,77,0.00,,---,0.00,VWS V14.01,2013-03-26 12:33:00,
2013-03-26 08:38:00,27.0,20.8,29.94,WSW,257,4.0,7.0,77,0.00,,---,0.00,VWS V14.01,2013-03-26 12:38:00,
2013-03-26 08:43:00,27.0,20.8,29.94,NNW,329,1.0,2.0,77,0.00,,---,0.00,VWS V14.01,2013-03-26 12:43:00,
2013-03-26 08:48:00,27.0,20.8,29.96,ENE,65,5.0,7.0,77,0.00,,---,0.00,VWS V14.01,2013-03-26 12:48:00,
2013-03-26 08:53:00,27.0,20.8,29.96,NNE,15,10.0,11.0,77,0.00,,---,0.00,VWS V14.01,2013-03-26 12:53:00,
2013-03-26 08:58:00,27.0,20.8,29.96,NW,322,0.0,11.0,77,0.00,,---,0.00,VWS V14.01,2013-03-26 12:58:00,
2013-03-26 09:03:00,27.0,20.8,29.97,SSW,203,5.0,11.0,77,0.00,,---,0.00,VWS V14.01,2013-03-26 13:03:00,
2013-03-26 09:08:00,27.2,21.0,29.97,South,173,1.0,11.0,77,0.00,,---,0.00,VWS V14.01,2013-03-26 13:08:00,
2013-03-26 09:13:00,27.3,20.8,29.97,NNW,347,0.0,5.0,76,0.00,,---,0.00,VWS V14.01,2013-03-26 13:13:00,
2013-03-26 09:18:00,27.6,21.0,29.97,South,189,1.0,10.0,76,0.00,,---,0.00,VWS V14.01,2013-03-26 13:18:00,
2013-03-26 09:23:00,28.1,21.5,29.97,NW,319,6.0,6.0,76,0.00,,---,0.00,VWS V14.01,2013-03-26 13:23:00,
2013-03-26 09:28:00,28.4,21.5,29.97,WSW,242,1.0,13.0,75,0.00,,---,0.00,VWS V14.01,2013-03-26 13:28:00,
2013-03-26 09:33:00,28.5,21.3,29.98,West,262,5.0,6.0,74,0.00,,---,0.00,VWS V14.01,2013-03-26 13:33:00,
2013-03-26 09:38:00,28.8,21.6,29.98,WNW,283,7.0,11.0,74,0.00,,---,0.00,VWS V14.01,2013-03-26 13:38:00,
2013-03-26 09:43:00,29.0,21.4,29.98,NW,307,0.0,5.0,73,0.00,,---,0.00,VWS V14.01,2013-03-26 13:43:00,
2013-03-26 09:48:00,29.3,21.7,29.99,SE,146,0.0,6.0,73,0.00,,---,0.00,VWS V14.01,2013-03-26 13:48:00,
2013-03-26 09:53:00,29.7,22.1,29.99,WSW,251,0.0,0.0,73,0.00,,---,0.00,VWS V14.01,2013-03-26 13:53:00,
2013-03-26 09:58:00,30.1,22.2,29.99,NE,56,1.0,7.0,72,0.00,,---,0.00,VWS V14.01,2013-03-26 13:58:00,
2013-03-26 10:03:00,30.4,22.1,29.98,WSW,258,1.0,5.0,71,0.00,,---,0.00,VWS V14.01,2013-03-26 14:03:00,
2013-03-26 10:08:00,30.7,22.8,29.98,WSW,250,3.0,7.0,72,0.00,,---,0.00,VWS V14.01,2013-03-26 14:08:00,
2013-03-26 10:13:00,31.0,23.0,29.98,North,350,7.0,8.0,72,0.00,,---,0.00,VWS V14.01,2013-03-26 14:13:00,
2013-03-26 10:18:00,30.9,21.9,30.00,ENE,73,0.0,13.0,69,0.00,,---,0.00,VWS V14.01,2013-03-26 14:18:00,
2013-03-26 10:23:00,31.2,22.9,30.00,WNW,282,6.0,8.0,71,0.00,,---,0.00,VWS V14.01,2013-03-26 14:23:00,
2013-03-26 10:28:00,31.5,22.9,30.00,SSW,196,2.0,8.0,70,0.00,,---,0.00,VWS V14.01,2013-03-26 14:28:00,
2013-03-26 10:33:00,31.6,23.3,29.99,SW,235,0.0,2.0,71,0.00,,---,0.00,VWS V14.01,2013-03-26 14:33:00,
2013-03-26 10:38:00,31.8,23.1,29.99,West,272,2.0,11.0,70,0.00,,---,0.00,VWS V14.01,2013-03-26 14:38:00,
2013-03-26 10:43:00,31.9,23.2,29.99,WSW,244,5.0,7.0,70,0.00,,---,0.00,VWS V14.01,2013-03-26 14:43:00,
2013-03-26 10:48:00,31.9,22.9,30.00,WNW,289,0.0,8.0,69,0.00,,---,0.00,VWS V14.01,2013-03-26 14:48:00,
2013-03-26 10:53:00,32.4,23.7,30.00,East,84,0.0,4.0,70,0.00,,---,0.00,VWS V14.01,2013-03-26 14:53:00,
2013-03-26 10:58:00,33.1,24.7,30.00,SW,224,4.0,7.0,71,0.00,,---,0.00,VWS V14.01,2013-03-26 14:58:00,
2013-03-26 11:03:00,33.8,25.1,30.00,West,264,4.0,6.0,70,0.00,,---,0.00,VWS V14.01,2013-03-26 15:03:00,
2013-03-26 11:08:00,33.8,24.0,30.00,West,266,1.0,11.0,67,0.00,,---,0.00,VWS V14.01,2013-03-26 15:08:00,
2013-03-26 11:13:00,33.4,24.0,30.00,NW,313,0.0,4.0,68,0.00,,---,0.00,VWS V14.01,2013-03-26 15:13:00,
2013-03-26 11:18:00,33.2,23.8,30.02,West,281,7.0,10.0,68,0.00,,---,0.00,VWS V14.01,2013-03-26 15:18:00,
2013-03-26 11:23:00,32.9,23.5,30.02,West,261,6.0,6.0,68,0.00,,---,0.00,VWS V14.01,2013-03-26 15:23:00,
2013-03-26 11:28:00,32.5,23.1,30.02,SSW,204,0.0,7.0,68,0.00,,---,0.00,VWS V14.01,2013-03-26 15:28:00,
2013-03-26 11:33:00,32.5,23.5,30.03,West,278,8.0,8.0,69,0.00,,---,0.00,VWS V14.01,2013-03-26 15:33:00,
2013-03-26 11:38:00,32.7,24.0,30.03,West,272,6.0,9.0,70,0.00,,---,0.00,VWS V14.01,2013-03-26 15:38:00,
2013-03-26 11:43:00,32.9,24.2,30.03,WSW,248,7.0,7.0,70,0.00,,---,0.00,VWS V14.01,2013-03-26 15:43:00,
2013-03-26 11:48:00,32.8,23.8,30.04,West,259,8.0,13.0,69,0.00,,---,0.00,VWS V14.01,2013-03-26 15:48:00,
2013-03-26 11:53:00,32.7,23.7,30.04,West,279,2.0,3.0,69,0.00,,---,0.00,VWS V14.01,2013-03-26 15:53:00,
2013-03-26 11:58:00,32.4,23.0,30.04,SW,235,3.0,6.0,68,0.00,,---,0.00,VWS V14.01,2013-03-26 15:58:00,
2013-03-26 12:03:00,32.4,23.4,30.05,WSW,255,3.0,3.0,69,0.00,,---,0.00,VWS V14.01,2013-03-26 16:03:00,
2013-03-26 12:08:00,32.4,23.4,30.05,WSW,255,0.0,3.0,69,0.00,,---,0.00,VWS V14.01,2013-03-26 16:08:00,
2013-03-26 12:13:00,32.4,23.0,30.05,SSW,210,0.0,0.0,68,0.00,,---,0.00,VWS V14.01,2013-03-26 16:13:00,
2013-03-26 12:18:00,32.2,22.5,30.05,NNW,346,0.0,7.0,67,0.00,,---,0.00,VWS V14.01,2013-03-26 16:18:00,
2013-03-26 12:23:00,32.2,23.2,30.05,NNW,346,0.0,0.0,69,0.00,,---,0.00,VWS V14.01,2013-03-26 16:23:00,
2013-03-26 12:28:00,32.1,22.8,30.05,SW,234,2.0,7.0,68,0.00,,---,0.00,VWS V14.01,2013-03-26 16:28:00,
2013-03-26 12:33:00,32.2,23.5,30.06,West,261,1.0,3.0,70,0.00,,---,0.00,VWS V14.01,2013-03-26 16:33:00,
2013-03-26 12:38:00,32.7,24.0,30.06,WNW,298,0.0,3.0,70,0.00,,---,0.00,VWS V14.01,2013-03-26 16:38:00,
2013-03-26 12:43:00,32.8,23.8,30.06,West,259,0.0,0.0,69,0.00,,---,0.00,VWS V14.01,2013-03-26 16:43:00,
2013-03-26 12:48:00,32.8,23.1,30.05,SW,223,4.0,8.0,67,0.00,,---,0.00,VWS V14.01,2013-03-26 16:48:00,
2013-03-26 12:53:00,32.8,23.4,30.05,NE,46,5.0,12.0,68,0.00,,---,0.00,VWS V14.01,2013-03-26 16:53:00,
2013-03-26 12:58:00,32.8,23.4,30.05,WSW,251,2.0,12.0,68,0.00,,---,0.00,VWS V14.01,2013-03-26 16:58:00,
2013-03-26 13:03:00,32.9,22.8,30.05,WSW,257,3.0,6.0,66,0.00,,---,0.00,VWS V14.01,2013-03-26 17:03:00,
2013-03-26 13:08:00,32.8,22.7,30.05,West,262,5.0,11.0,66,0.00,,---,0.00,VWS V14.01,2013-03-26 17:08:00,
2013-03-26 13:13:00,32.8,23.1,30.05,SSW,193,3.0,7.0,67,0.00,,---,0.00,VWS V14.01,2013-03-26 17:13:00,
2013-03-26 13:18:00,32.8,22.7,30.06,NW,310,2.0,8.0,66,0.00,,---,0.00,VWS V14.01,2013-03-26 17:18:00,
2013-03-26 13:23:00,32.8,22.3,30.06,NW,317,8.0,8.0,65,0.00,,---,0.00,VWS V14.01,2013-03-26 17:23:00,
2013-03-26 13:28:00,32.9,22.4,30.06,WSW,245,2.0,8.0,65,0.00,,---,0.00,VWS V14.01,2013-03-26 17:28:00,
2013-03-26 13:33:00,33.1,23.0,30.06,West,281,6.0,8.0,66,0.00,,---,0.00,VWS V14.01,2013-03-26 17:33:00,
2013-03-26 13:38:00,32.9,23.2,30.06,WSW,240,6.0,11.0,67,0.00,,---,0.00,VWS V14.01,2013-03-26 17:38:00,
2013-03-26 13:43:00,32.9,23.5,30.06,SW,231,8.0,8.0,68,0.00,,---,0.00,VWS V14.01,2013-03-26 17:43:00,
2013-03-26 13:48:00,32.9,23.9,30.06,WSW,244,6.0,8.0,69,0.00,,---,0.00,VWS V14.01,2013-03-26 17:48:00,
2013-03-26 13:53:00,32.9,23.5,30.06,West,261,7.0,10.0,68,0.00,,---,0.00,VWS V14.01,2013-03-26 17:53:00,
2013-03-26 13:58:00,33.1,24.0,30.06,West,269,3.0,10.0,69,0.00,,---,0.00,VWS V14.01,2013-03-26 17:58:00,
2013-03-26 14:03:00,33.2,23.5,30.06,WSW,242,3.0,7.0,67,0.00,,---,0.00,VWS V14.01,2013-03-26 18:03:00,
2013-03-26 14:08:00,33.5,24.1,30.06,WSW,257,5.0,11.0,68,0.00,,---,0.00,VWS V14.01,2013-03-26 18:08:00,
2013-03-26 14:13:00,33.8,23.3,30.06,West,278,6.0,6.0,65,0.00,,---,0.00,VWS V14.01,2013-03-26 18:13:00,
2013-03-26 14:18:00,34.0,23.9,30.07,NNW,341,0.0,7.0,66,0.00,,---,0.00,VWS V14.01,2013-03-26 18:18:00,
2013-03-26 14:23:00,33.8,23.7,30.07,WNW,298,0.0,4.0,66,0.00,,---,0.00,VWS V14.01,2013-03-26 18:23:00,
2013-03-26 14:28:00,33.7,23.6,30.07,WSW,254,6.0,11.0,66,0.00,,---,0.00,VWS V14.01,2013-03-26 18:28:00,
2013-03-26 14:33:00,33.4,24.3,30.07,West,279,5.0,9.0,69,0.00,,---,0.00,VWS V14.01,2013-03-26 18:33:00,
2013-03-26 14:38:00,33.4,25.7,30.07,NNW,329,0.0,9.0,73,0.00,,---,0.00,VWS V14.01,2013-03-26 18:38:00,
2013-03-26 14:43:00,33.8,25.1,30.07,SW,230,3.0,4.0,70,0.00,,---,0.00,VWS V14.01,2013-03-26 18:43:00,
2013-03-26 14:48:00,33.8,24.0,30.06,SW,214,3.0,8.0,67,0.00,,---,0.00,VWS V14.01,2013-03-26 18:48:00,
2013-03-26 14:53:00,33.7,24.3,30.06,West,268,8.0,8.0,68,0.00,,---,0.00,VWS V14.01,2013-03-26 18:53:00,
2013-03-26 14:58:00,33.4,24.7,30.06,West,281,5.0,11.0,70,0.00,,---,0.00,VWS V14.01,2013-03-26 18:58:00,
2013-03-26 15:03:00,32.9,25.2,30.08,West,265,6.0,6.0,73,0.00,,---,0.00,VWS V14.01,2013-03-26 19:03:00,
2013-03-26 15:08:00,32.5,25.1,30.08,WSW,258,3.0,7.0,74,0.00,,---,0.00,VWS V14.01,2013-03-26 19:08:00,
2013-03-26 15:13:00,32.4,25.4,30.08,West,274,0.0,1.0,75,0.00,,---,0.00,VWS V14.01,2013-03-26 19:13:00,
2013-03-26 15:18:00,32.4,25.0,30.08,WSW,252,4.0,7.0,74,0.00,,---,0.00,VWS V14.01,2013-03-26 19:18:00,
2013-03-26 15:23:00,32.2,24.9,30.08,West,259,4.0,4.0,74,0.00,,---,0.00,VWS V14.01,2013-03-26 19:23:00,
2013-03-26 15:28:00,32.2,24.5,30.08,SW,230,0.0,8.0,73,0.00,,---,0.00,VWS V14.01,2013-03-26 19:28:00,
2013-03-26 15:33:00,32.4,24.4,30.08,WSW,254,0.0,3.0,72,0.00,,---,0.00,VWS V14.01,2013-03-26 19:33:00,
2013-03-26 15:38:00,32.7,24.4,30.08,WNW,286,3.0,7.0,71,0.00,,---,0.00,VWS V14.01,2013-03-26 19:38:00,
2013-03-26 15:43:00,32.8,23.8,30.08,SW,235,4.0,7.0,69,0.00,,---,0.00,VWS V14.01,2013-03-26 19:43:00,
2013-03-26 15:48:00,32.8,23.8,30.08,West,265,6.0,14.0,69,0.00,,---,0.00,VWS V14.01,2013-03-26 19:48:00,
2013-03-26 15:53:00,32.8,23.8,30.08,WSW,238,8.0,8.0,69,0.00,,---,0.00,VWS V14.01,2013-03-26 19:53:00,
2013-03-26 15:58:00,32.7,23.7,30.08,WNW,299,0.0,13.0,69,0.00,,---,0.00,VWS V14.01,2013-03-26 19:58:00,
2013-03-26 16:03:00,32.4,23.7,30.08,West,261,2.0,3.0,70,0.00,,---,0.00,VWS V14.01,2013-03-26 20:03:00,
2013-03-26 16:08:00,32.2,23.9,30.08,WSW,251,3.0,7.0,71,0.00,,---,0.00,VWS V14.01,2013-03-26 20:08:00,
2013-03-26 16:13:00,31.9,23.9,30.08,WSW,251,6.0,6.0,72,0.00,,---,0.00,VWS V14.01,2013-03-26 20:13:00,
2013-03-26 16:18:00,31.5,24.2,30.08,SW,231,0.0,11.0,74,0.00,,---,0.00,VWS V14.01,2013-03-26 20:18:00,
2013-03-26 16:23:00,31.2,24.2,30.08,WSW,248,5.0,6.0,75,0.00,,---,0.00,VWS V14.01,2013-03-26 20:23:00,
2013-03-26 16:28:00,31.2,24.2,30.08,West,261,6.0,7.0,75,0.00,,---,0.00,VWS V14.01,2013-03-26 20:28:00,
2013-03-26 16:33:00,31.2,23.9,30.09,WNW,290,6.0,11.0,74,0.00,,---,0.00,VWS V14.01,2013-03-26 20:33:00,
2013-03-26 16:38:00,31.2,23.6,30.09,WSW,247,2.0,11.0,73,0.00,,---,0.00,VWS V14.01,2013-03-26 20:38:00,
2013-03-26 16:43:00,31.0,23.4,30.09,WSW,258,11.0,11.0,73,0.00,,---,0.00,VWS V14.01,2013-03-26 20:43:00,
2013-03-26 16:48:00,30.9,23.3,30.09,WNW,296,5.0,11.0,73,0.00,,---,0.00,VWS V14.01,2013-03-26 20:48:00,
2013-03-26 16:53:00,30.7,23.4,30.09,WSW,248,4.0,7.0,74,0.00,,---,0.00,VWS V14.01,2013-03-26 20:53:00,
2013-03-26 16:58:00,30.7,23.4,30.09,WSW,237,8.0,11.0,74,0.00,,---,0.00,VWS V14.01,2013-03-26 20:58:00,
2013-03-26 17:03:00,30.7,23.1,30.09,WNW,286,7.0,8.0,73,0.00,,---,0.00,VWS V14.01,2013-03-26 21:03:00,
2013-03-26 17:08:00,30.7,23.1,30.09,WSW,237,6.0,13.0,73,0.00,,---,0.00,VWS V14.01,2013-03-26 21:08:00,
2013-03-26 17:13:00,30.6,23.0,30.09,SW,218,5.0,8.0,73,0.00,,---,0.00,VWS V14.01,2013-03-26 21:13:00,
2013-03-26 17:18:00,30.6,23.3,30.10,WSW,245,5.0,10.0,74,0.00,,---,0.00,VWS V14.01,2013-03-26 21:18:00,
2013-03-26 17:23:00,30.4,23.1,30.10,WSW,238,9.0,12.0,74,0.00,,---,0.00,VWS V14.01,2013-03-26 21:23:00,
2013-03-26 17:28:00,30.3,23.0,30.10,WSW,250,10.0,12.0,74,0.00,,---,0.00,VWS V14.01,2013-03-26 21:28:00,
2013-03-26 17:33:00,30.3,23.3,30.10,SSW,204,5.0,8.0,75,0.00,,---,0.00,VWS V14.01,2013-03-26 21:33:00,
2013-03-26 17:38:00,30.3,23.0,30.10,WNW,288,12.0,16.0,74,0.00,,---,0.00,VWS V14.01,2013-03-26 21:38:00,
2013-03-26 17:43:00,30.3,23.0,30.10,WSW,252,2.0,5.0,74,0.00,,---,0.00,VWS V14.01,2013-03-26 21:43:00,
2013-03-26 17:48:00,30.3,23.0,30.10,WSW,238,3.0,14.0,74,0.00,,---,0.00,VWS V14.01,2013-03-26 21:48:00,
2013-03-26 17:53:00,30.3,23.0,30.10,West,281,1.0,6.0,74,0.00,,---,0.00,VWS V14.01,2013-03-26 21:53:00,
2013-03-26 17:58:00,30.3,23.0,30.10,WSW,237,5.0,8.0,74,0.00,,---,0.00,VWS V14.01,2013-03-26 21:58:00,
2013-03-26 18:03:00,30.3,22.7,30.11,SSW,203,5.0,7.0,73,0.00,,---,0.00,VWS V14.01,2013-03-26 22:03:00,
2013-03-26 18:08:00,30.4,22.8,30.11,WSW,242,6.0,7.0,73,0.00,,---,0.00,VWS V14.01,2013-03-26 22:08:00,
2013-03-26 18:13:00,30.6,22.7,30.11,WSW,250,6.0,8.0,72,0.00,,---,0.00,VWS V14.01,2013-03-26 22:13:00,
2013-03-26 18:18:00,30.7,22.4,30.12,WNW,282,2.0,11.0,71,0.00,,---,0.00,VWS V14.01,2013-03-26 22:18:00,
2013-03-26 18:23:00,30.7,22.4,30.12,SW,228,1.0,2.0,71,0.00,,---,0.00,VWS V14.01,2013-03-26 22:23:00,
2013-03-26 18:28:00,30.9,22.6,30.12,WNW,289,5.0,5.0,71,0.00,,---,0.00,VWS V14.01,2013-03-26 22:28:00,
2013-03-26 18:33:00,30.9,23.0,30.12,WNW,286,2.0,2.0,72,0.00,,---,0.00,VWS V14.01,2013-03-26 22:33:00,
2013-03-26 18:38:00,30.9,22.6,30.12,WNW,286,3.0,9.0,71,0.00,,---,0.00,VWS V14.01,2013-03-26 22:38:00,
2013-03-26 18:43:00,30.7,22.8,30.12,West,276,1.0,2.0,72,0.00,,---,0.00,VWS V14.01,2013-03-26 22:43:00,
2013-03-26 18:48:00,30.7,22.8,30.13,WSW,254,5.0,8.0,72,0.00,,---,0.00,VWS V14.01,2013-03-26 22:48:00,
2013-03-26 18:53:00,30.6,22.7,30.13,West,261,2.0,5.0,72,0.00,,---,0.00,VWS V14.01,2013-03-26 22:53:00,
2013-03-26 18:58:00,30.6,22.7,30.13,West,266,2.0,6.0,72,0.00,,---,0.00,VWS V14.01,2013-03-26 22:58:00,
2013-03-26 19:03:00,30.4,22.5,30.13,WSW,245,1.0,3.0,72,0.00,,---,0.00,VWS V14.01,2013-03-26 23:03:00,
2013-03-26 19:08:00,30.4,22.5,30.13,West,262,3.0,7.0,72,0.00,,---,0.00,VWS V14.01,2013-03-26 23:08:00,
2013-03-26 19:13:00,30.3,22.0,30.13,WSW,251,6.0,8.0,71,0.00,,---,0.00,VWS V14.01,2013-03-26 23:13:00,
2013-03-26 19:18:00,30.3,22.0,30.14,West,272,5.0,8.0,71,0.00,,---,0.00,VWS V14.01,2013-03-26 23:18:00,
2013-03-26 19:23:00,30.1,21.9,30.14,West,266,1.0,4.0,71,0.00,,---,0.00,VWS V14.01,2013-03-26 23:23:00,
2013-03-26 19:28:00,30.1,21.9,30.14,SW,235,7.0,10.0,71,0.00,,---,0.00,VWS V14.01,2013-03-26 23:28:00,
2013-03-26 19:33:00,30.1,21.9,30.14,SW,235,0.0,1.0,71,0.00,,---,0.00,VWS V14.01,2013-03-26 23:33:00,
2013-03-26 19:38:00,30.0,21.8,30.14,SSW,204,2.0,5.0,71,0.00,,---,0.00,VWS V14.01,2013-03-26 23:38:00,
2013-03-26 19:43:00,30.0,22.1,30.14,WSW,250,3.0,3.0,72,0.00,,---,0.00,VWS V14.01,2013-03-26 23:43:00,
2013-03-26 19:48:00,30.0,22.1,30.14,West,281,4.0,6.0,72,0.00,,---,0.00,VWS V14.01,2013-03-26 23:48:00,
2013-03-26 19:53:00,29.8,21.9,30.14,SW,230,3.0,5.0,72,0.00,,---,0.00,VWS V14.01,2013-03-26 23:53:00,
2013-03-26 19:58:00,29.7,21.8,30.14,West,265,5.0,8.0,72,0.00,,---,0.00,VWS V14.01,2013-03-26 23:58:00,
2013-03-26 20:03:00,29.7,21.8,30.15,WNW,295,6.0,6.0,72,0.00,,---,0.00,VWS V14.01,2013-03-27 00:03:00,
2013-03-26 20:08:00,29.5,21.3,30.15,WSW,241,3.0,8.0,71,0.00,,---,0.00,VWS V14.01,2013-03-27 00:08:00,
2013-03-26 20:13:00,29.5,21.3,30.15,WSW,247,0.0,2.0,71,0.00,,---,0.00,VWS V14.01,2013-03-27 00:13:00,
2013-03-26 20:18:00,29.4,21.2,30.15,WSW,247,2.0,5.0,71,0.00,,---,0.00,VWS V14.01,2013-03-27 00:18:00,
2013-03-26 20:23:00,29.4,21.2,30.15,WSW,238,1.0,2.0,71,0.00,,---,0.00,VWS V14.01,2013-03-27 00:23:00,
2013-03-26 20:28:00,29.4,21.2,30.15,West,275,0.0,4.0,71,0.00,,---,0.00,VWS V14.01,2013-03-27 00:28:00,
2013-03-26 20:33:00,29.4,21.5,30.15,WSW,248,1.0,1.0,72,0.00,,---,0.00,VWS V14.01,2013-03-27 00:33:00,
2013-03-26 20:38:00,29.4,21.5,30.15,WSW,237,0.0,4.0,72,0.00,,---,0.00,VWS V14.01,2013-03-27 00:38:00,
2013-03-26 20:43:00,29.5,21.6,30.15,SW,233,4.0,5.0,72,0.00,,---,0.00,VWS V14.01,2013-03-27 00:43:00,
2013-03-26 20:48:00,29.5,21.9,30.16,SW,233,0.0,5.0,73,0.00,,---,0.00,VWS V14.01,2013-03-27 00:48:00,
2013-03-26 20:53:00,29.5,21.9,30.16,WSW,245,2.0,3.0,73,0.00,,---,0.00,VWS V14.01,2013-03-27 00:53:00,
2013-03-26 20:58:00,29.5,22.2,30.16,WSW,257,3.0,6.0,74,0.00,,---,0.00,VWS V14.01,2013-03-27 00:58:00,
2013-03-26 21:03:00,29.5,22.2,30.17,West,261,2.0,6.0,74,0.00,,---,0.00,VWS V14.01,2013-03-27 01:03:00,
2013-03-26 21:08:00,29.5,22.2,30.17,West,276,0.0,6.0,74,0.00,,---,0.00,VWS V14.01,2013-03-27 01:08:00,
2013-03-26 21:13:00,29.5,22.2,30.17,West,266,6.0,6.0,74,0.00,,---,0.00,VWS V14.01,2013-03-27 01:13:00,
2013-03-26 21:18:00,29.5,22.2,30.16,SW,223,5.0,6.0,74,0.00,,---,0.00,VWS V14.01,2013-03-27 01:18:00,
2013-03-26 21:23:00,29.5,22.2,30.16,SW,235,8.0,8.0,74,0.00,,---,0.00,VWS V14.01,2013-03-27 01:23:00,
2013-03-26 21:28:00,29.5,21.9,30.16,SW,226,0.0,11.0,73,0.00,,---,0.00,VWS V14.01,2013-03-27 01:28:00,
2013-03-26 21:33:00,29.5,21.9,30.16,SSW,206,0.0,0.0,73,0.00,,---,0.00,VWS V14.01,2013-03-27 01:33:00,
2013-03-26 21:38:00,29.5,21.9,30.16,SW,233,0.0,5.0,73,0.00,,---,0.00,VWS V14.01,2013-03-27 01:38:00,
2013-03-26 21:43:00,29.5,21.9,30.16,WSW,244,4.0,4.0,73,0.00,,---,0.00,VWS V14.01,2013-03-27 01:43:00,
2013-03-26 21:48:00,29.5,21.9,30.17,WSW,241,2.0,4.0,73,0.00,,---,0.00,VWS V14.01,2013-03-27 01:48:00,
2013-03-26 21:53:00,29.5,21.6,30.17,SW,235,1.0,3.0,72,0.00,,---,0.00,VWS V14.01,2013-03-27 01:53:00,
2013-03-26 21:58:00,29.5,21.6,30.17,WSW,244,0.0,7.0,72,0.00,,---,0.00,VWS V14.01,2013-03-27 01:58:00,
2013-03-26 22:03:00,29.5,21.6,30.17,West,279,0.0,2.0,72,0.00,,---,0.00,VWS V14.01,2013-03-27 02:03:00,
2013-03-26 22:08:00,29.5,21.6,30.17,WSW,248,0.0,2.0,72,0.00,,---,0.00,VWS V14.01,2013-03-27 02:08:00,
2013-03-26 22:13:00,29.5,21.6,30.17,WSW,248,3.0,5.0,72,0.00,,---,0.00,VWS V14.01,2013-03-27 02:13:00,
2013-03-26 22:18:00,29.4,21.8,30.16,WSW,244,6.0,6.0,73,0.00,,---,0.00,VWS V14.01,2013-03-27 02:18:00,
2013-03-26 22:23:00,29.4,21.5,30.16,WSW,240,0.0,2.0,72,0.00,,---,0.00,VWS V14.01,2013-03-27 02:23:00,
2013-03-26 22:28:00,29.4,21.5,30.16,SSW,206,4.0,11.0,72,0.00,,---,0.00,VWS V14.01,2013-03-27 02:28:00,
2013-03-26 22:33:00,29.4,21.5,30.17,SSW,210,0.0,0.0,72,0.00,,---,0.00,VWS V14.01,2013-03-27 02:33:00,
2013-03-26 22:38:00,29.3,21.4,30.17,West,279,0.0,7.0,72,0.00,,---,0.00,VWS V14.01,2013-03-27 02:38:00,
2013-03-26 22:43:00,29.3,21.4,30.17,NW,320,0.0,0.0,72,0.00,,---,0.00,VWS V14.01,2013-03-27 02:43:00,
2013-03-26 22:48:00,29.3,21.1,30.17,East,84,0.0,9.0,71,0.00,,---,0.00,VWS V14.01,2013-03-27 02:48:00,
2013-03-26 22:53:00,29.3,21.1,30.17,West,275,2.0,2.0,71,0.00,,---,0.00,VWS V14.01,2013-03-27 02:53:00,
2013-03-26 22:57:00,29.0,20.5,30.19,WSW,240,0.0,0.0,70,0.00,,---,0.00,VWS V14.01,2013-03-27 02:57:00,
2013-03-26 22:58:00,29.3,20.7,30.17,NNW,336,2.0,6.0,70,0.00,,---,0.00,VWS V14.01,2013-03-27 02:58:00,
2013-03-26 22:59:00,29.0,20.5,30.19,WSW,238,0.0,0.0,70,0.00,,---,0.00,VWS V14.01,2013-03-27 02:59:00,
2013-03-26 23:00:00,29.1,20.5,30.19,WSW,240,0.0,0.0,70,0.00,,---,0.00,VWS V14.01,2013-03-27 03:00:00,
2013-03-26 23:01:00,29.1,20.5,30.19,WSW,240,0.0,0.0,70,0.00,,---,0.00,VWS V14.01,2013-03-27 03:01:00,
2013-03-26 23:03:00,29.3,21.1,30.17,WSW,244,6.0,6.0,71,0.00,,---,0.00,VWS V14.01,2013-03-27 03:03:00,
2013-03-26 23:08:00,29.3,21.1,30.17,WSW,257,0.0,6.0,71,0.00,,---,0.00,VWS V14.01,2013-03-27 03:08:00,
2013-03-26 23:13:00,29.3,20.7,30.17,SW,231,0.0,0.0,70,0.00,,---,0.00,VWS V14.01,2013-03-27 03:13:00,
2013-03-26 23:18:00,29.3,20.7,30.18,WNW,300,0.0,2.0,70,0.00,,---,0.00,VWS V14.01,2013-03-27 03:18:00,
2013-03-26 23:23:00,29.1,20.5,30.18,West,272,0.0,0.0,70,0.00,,---,0.00,VWS V14.01,2013-03-27 03:23:00,
2013-03-26 23:28:00,29.1,20.5,30.18,West,264,0.0,0.0,70,0.00,,---,0.00,VWS V14.01,2013-03-27 03:28:00,
2013-03-26 23:33:00,29.1,20.9,30.19,West,275,0.0,0.0,71,0.00,,---,0.00,VWS V14.01,2013-03-27 03:33:00,
2013-03-26 23:38:00,29.0,20.5,30.19,West,275,0.0,0.0,70,0.00,,---,0.00,VWS V14.01,2013-03-27 03:38:00,
2013-03-26 23:43:00,29.0,20.8,30.19,West,275,0.0,0.0,71,0.00,,---,0.00,VWS V14.01,2013-03-27 03:43:00,
2013-03-26 23:48:00,29.0,20.5,30.19,West,274,0.0,2.0,70,0.00,,---,0.00,VWS V14.01,2013-03-27 03:48:00,
2013-03-26 23:54:00,29.0,20.5,30.19,WSW,237,0.0,0.0,70,0.00,,---,0.00,VWS V14.01,2013-03-27 03:54:00,
2013-03-26 23:59:00,29.0,20.5,30.19,WSW,240,0.0,0.0,70,0.00,,---,0.00,VWS V14.01,2013-03-27 03:59:00,